1513904401.15,62891,7.63,73492.3,-12.49,-13.65,-13.65,0,*6A
1513904402.39,62892,7.63,73486.5,-12.49,-13.55,-13.65,0,*6A
1513904403.6,62893,7.56,73486.5,-12.51,-13.65,-13.65,0,*61
1513904404.84,62894,7.56,73488.8,-12.49,-13.65,-13.65,0,*6F
1513904406.08,62895,7.56,73486.5,-12.49,-13.55,-13.65,0,*6D
1513904407.3,62896,7.56,73478.3,-12.51,-13.65,-13.65,0,*64
1513904408.56,62897,7.56,73484.5,-12.49,-13.79,-13.55,0,*62
1513904409.8,62898,7.56,73488.8,-12.49,-13.69,-13.65,0,*6F
1513904411.01,62899,7.56,73486.5,-12.51,-13.65,-13.69,0,*67
1513904412.22,62900,7.56,73490.8,-12.51,-13.55,-13.69,0,*65
1513904413.46,62901,7.56,73480.5,-12.49,-13.65,-13.69,0,*6E
1513904414.67,62902,7.56,73488.3,-12.51,-13.55,-13.65,0,*6B
1513904415.91,62903,7.56,73472.8,-12.49,-13.65,-13.69,0,*6C
1513904417.14,62904,7.63,73478.8,-12.51,-13.69,-13.79,0,*6F
1513904418.36,62905,7.56,73470.0,-12.51,-13.69,-13.69,0,*6F
1513904419.57,62906,7.56,73466.0,-12.51,-13.65,-13.69,0,*60
1513904420.78,62907,7.56,73476.8,-12.51,-13.69,-13.69,0,*6D
1513904421.99,62908,7.56,73482.8,-12.51,-13.65,-13.69,0,*6E
1513904423.23,62909,7.56,73464.8,-12.51,-13.69,-13.79,0,*62
1513904424.46,62910,7.56,73476.0,-12.51,-13.79,-13.93,0,*6F
1513904425.73,62911,7.56,73476.3,-12.51,-13.79,-13.83,0,*6F
1513904427.02,62912,7.63,73476.3,-12.49,-13.83,-13.83,0,*60
1513904428.29,62913,7.56,73452.8,-12.51,-13.83,-13.83,0,*68
1513904429.53,62914,7.63,73484.3,-12.51,-13.79,-13.93,0,*6B
1513904430.77,62915,7.63,73474.0,-12.51,-13.79,-13.65,0,*63
1513904432.0,62916,7.56,73458.5,-12.49,-13.65,-13.65,0,*64
1513904433.24,62917,7.56,73478.8,-12.49,-13.55,-13.65,0,*66
1513904434.46,62918,7.63,73478.0,-12.51,-13.65,-13.55,0,*60
1513904435.68,62919,7.56,73486.0,-12.51,-13.55,-13.65,0,*61
1513904436.89,62920,7.56,73464.5,-12.51,-13.65,-13.65,0,*68
1513904438.1,62921,7.56,73482.8,-12.51,-13.55,-13.65,0,*6A
1513904439.32,62922,7.56,73478.8,-12.51,-13.65,-13.65,0,*6A
1513904440.53,62923,7.56,73476.3,-12.51,-13.65,-13.65,0,*6B
1513904441.74,62924,7.63,73468.5,-12.51,-13.65,-13.69,0,*60
1513904442.96,62925,7.56,73472.3,-12.51,-13.55,-13.65,0,*6E
1513904444.17,62926,7.56,73492.3,-12.51,-13.65,-13.69,0,*62
1513904445.41,62927,7.56,73472.0,-12.53,-13.73,-13.73,0,*6D
1513904446.65,62928,7.56,73470.3,-12.53,-13.69,-13.69,0,*62
1513904447.89,62929,7.56,73468.0,-12.49,-13.65,-13.65,0,*68
1513904449.13,62930,7.63,73488.5,-12.49,-13.65,-13.65,0,*60
1513904450.37,62931,7.63,73484.3,-12.53,-13.69,-13.73,0,*61
1513904451.61,62932,7.63,73468.8,-12.53,-13.69,-13.73,0,*62
1513904452.88,62933,7.56,73488.5,-12.53,-13.61,-13.69,0,*60
1513904454.09,62934,7.63,73482.3,-12.51,-13.65,-13.65,0,*6D
1513904455.36,62935,7.56,73482.3,-12.53,-13.61,-13.73,0,*6D
1513904456.62,62936,7.63,73488.5,-12.53,-13.61,-13.69,0,*65
1513904457.84,62937,7.56,73478.5,-12.51,-13.65,-13.55,0,*6D
1513904459.05,62938,7.63,73482.8,-12.51,-13.65,-13.69,0,*6D
1513904460.26,62939,7.56,73480.8,-12.51,-13.69,-13.69,0,*60
1513904461.52,62940,7.63,73492.8,-12.51,-13.79,-13.79,0,*6E
1513904462.76,62941,7.56,73492.8,-12.51,-13.79,-13.69,0,*6E
1513904463.99,62942,7.63,73498.0,-12.51,-13.69,-13.79,0,*6D
1513904465.25,62943,7.56,73496.5,-12.51,-13.79,-13.79,0,*6D
1513904466.52,62944,7.63,73496.0,-12.51,-13.83,-13.83,0,*6A
1513904467.82,62945,7.56,73496.3,-12.53,-13.83,-13.87,0,*6D
1513904469.12,62946,7.56,73494.0,-12.53,-13.83,-13.87,0,*6E
1513904470.42,62947,7.56,73496.5,-12.53,-13.87,-13.97,0,*6A
1513904471.71,62948,7.63,73492.8,-12.53,-13.97,-13.87,0,*65
1513904473.02,62949,7.56,73492.3,-12.53,-13.97,-13.97,0,*65
1513904474.3,62950,7.56,73492.8,-12.55,-13.97,-13.97,0,*6B
1513904475.6,62951,7.56,73492.3,-12.53,-13.87,-13.97,0,*6D
1513904476.88,62952,7.56,73500.3,-12.55,-13.97,-13.97,0,*69
1513904478.18,62953,7.56,73496.5,-12.53,-13.87,-13.97,0,*6F
1513904479.48,62954,7.56,73500.3,-12.53,-13.97,-13.97,0,*69
1513904480.75,62955,7.63,73506.3,-12.55,-13.87,-14.01,0,*67
1513904482.06,62956,7.56,73500.8,-12.53,-13.97,-13.97,0,*6B
1513904483.34,62957,7.56,73504.8,-12.55,-13.97,-13.97,0,*6C
1513904484.58,62958,7.63,73504.8,-12.55,-13.87,-14.11,0,*6B
1513904485.82,62959,7.56,73502.8,-12.55,-13.97,-14.11,0,*6B
1513904487.13,62960,7.56,73500.3,-12.57,-13.97,-14.01,0,*62
1513904488.42,62961,7.56,73500.0,-12.57,-13.87,-14.01,0,*62
1513904489.72,62962,7.56,73500.5,-12.57,-13.87,-14.01,0,*61
1513904491.0,62963,7.63,73506.0,-12.55,-13.97,-13.97,0,*6B
1513904492.26,62964,7.63,73502.0,-12.57,-14.01,-14.11,0,*6F
1513904493.54,62965,7.63,73500.8,-12.57,-14.11,-14.01,0,*6E
1513904494.84,62966,7.56,73504.0,-12.57,-14.01,-14.01,0,*6C
1513904496.08,62967,7.63,73502.3,-12.57,-14.11,-14.11,0,*6D
1513904497.38,62968,7.56,73500.0,-12.57,-14.01,-14.01,0,*62
1513904498.69,62969,7.63,73518.0,-12.57,-13.97,-14.01,0,*6B
1513904499.98,62970,7.56,73512.3,-12.57,-13.87,-13.97,0,*6A
1513904501.22,62971,7.56,73474.8,-12.59,-13.79,-13.93,0,*60
1513904502.49,62972,7.63,73466.3,-12.57,-13.73,-13.83,0,*66
1513904503.75,62973,7.63,73482.0,-12.57,-13.61,-13.69,0,*60
1513904504.99,62974,7.56,73484.0,-12.59,-13.61,-13.65,0,*65
1513904506.24,62975,7.56,73476.0,-12.59,-13.61,-13.65,0,*64
1513904507.48,62976,7.63,73476.8,-12.57,-13.55,-13.55,0,*6D
1513904508.75,62977,7.56,73476.3,-12.59,-13.61,-13.61,0,*62
1513904509.98,62978,7.56,73520.5,-12.57,-13.47,-13.47,0,*63
1513904511.22,62979,7.56,73516.5,-12.57,-13.47,-13.55,0,*61
1513904512.45,62980,7.56,73500.5,-12.57,-13.47,-13.47,0,*64
1513904513.67,62981,7.56,73498.0,-12.55,-13.55,-13.55,0,*67
1513904514.96,62982,7.56,73490.3,-12.57,-13.61,-13.61,0,*66
1513904516.2,62983,7.56,73504.5,-12.57,-13.69,-13.69,0,*67
1513904517.44,62984,7.56,73488.8,-12.57,-13.69,-13.69,0,*60
1513904518.73,62985,7.56,73506.8,-12.57,-13.83,-13.79,0,*64
1513904519.97,62986,7.63,73504.3,-12.57,-13.73,-13.73,0,*62
1513904521.2,62987,7.56,73502.0,-12.57,-13.73,-13.69,0,*68
1513904522.44,62988,7.56,73486.5,-12.57,-13.69,-13.69,0,*6C
1513904523.7,62989,7.56,73492.0,-12.57,-13.61,-13.73,0,*6E
1513904524.97,62990,7.56,73480.5,-12.57,-13.69,-13.61,0,*6D
1513904526.24,62991,7.56,73478.3,-12.57,-13.55,-13.61,0,*63
1513904527.48,62992,7.56,73494.5,-12.57,-13.55,-13.55,0,*67
1513904528.75,62993,7.63,73494.8,-12.57,-13.69,-13.61,0,*6E
1513904529.97,62994,7.56,73476.0,-12.55,-13.73,-13.73,0,*63
1513904531.23,62995,7.56,73476.8,-12.57,-13.73,-13.83,0,*6F
1513904532.47,62996,7.56,73466.0,-12.57,-13.73,-13.73,0,*63
1513904533.77,62997,7.56,73482.3,-12.57,-13.83,-13.61,0,*6E
1513904535.03,62998,7.56,73460.3,-12.57,-13.61,-13.73,0,*6E
1513904536.33,62999,7.63,73472.8,-12.57,-13.61,-13.61,0,*6C
1513904537.57,63000,7.56,73462.8,-12.57,-13.69,-13.73,0,*6F
1513904538.86,63001,7.56,73474.3,-12.57,-13.61,-13.61,0,*65
1513904540.1,63002,7.56,73482.0,-12.57,-13.69,-13.69,0,*66
1513904541.36,63003,7.56,73458.8,-12.57,-13.61,-13.69,0,*6F
1513904542.6,63004,7.56,73456.5,-12.57,-13.69,-13.69,0,*60
1513904543.86,63005,7.56,73456.8,-12.57,-13.73,-13.83,0,*6E
1513904545.1,63006,7.56,73476.5,-12.57,-13.73,-13.73,0,*62
1513904546.36,63007,7.56,73498.3,-12.57,-13.73,-13.83,0,*6C
1513904547.6,63008,7.56,73468.5,-12.57,-13.73,-13.73,0,*6C
1513904548.84,63009,7.63,73460.0,-12.55,-13.73,-13.83,0,*60
1513904550.13,63010,7.63,73472.5,-12.57,-13.87,-13.83,0,*61
1513904551.34,63011,7.56,73454.5,-12.59,-13.93,-13.93,0,*6A
1513904552.63,63012,7.63,73466.5,-12.57,-13.87,-13.83,0,*63
1513904553.9,63013,7.56,73464.8,-12.57,-13.97,-13.73,0,*6C
1513904555.14,63014,7.56,73476.8,-12.57,-13.73,-13.73,0,*61
1513904556.41,63015,7.63,73474.3,-12.59,-13.79,-13.87,0,*6F
1513904557.7,63016,7.56,73478.8,-12.57,-13.83,-13.87,0,*67
1513904558.97,63017,7.63,73478.5,-12.59,-13.79,-13.87,0,*6D
1513904560.26,63018,7.63,73478.3,-12.57,-13.83,-13.83,0,*6D
1513904561.48,63019,7.56,73486.3,-12.59,-13.93,-13.93,0,*62
1513904562.76,63020,7.56,73500.5,-12.57,-13.87,-13.87,0,*66
1513904563.98,63021,7.56,73496.8,-12.59,-13.93,-13.93,0,*69
1513904565.27,63022,7.56,73498.8,-12.57,-13.87,-13.97,0,*65
1513904566.52,63023,7.56,73480.3,-12.59,-13.97,-13.93,0,*6F
1513904567.82,63024,7.56,73476.8,-12.57,-13.87,-13.97,0,*63
1513904569.03,63025,7.56,73482.5,-12.59,-13.93,-13.93,0,*6D
1513904570.28,63026,7.56,73496.8,-12.59,-13.93,-14.01,0,*62
1513904571.57,63027,7.56,73484.3,-12.57,-13.87,-14.01,0,*68
1513904572.81,63028,7.56,73498.8,-12.59,-13.87,-13.93,0,*65
1513904574.02,63029,7.56,73494.0,-12.59,-13.93,-13.93,0,*61
1513904575.3,63030,7.56,73512.3,-12.59,-14.01,-13.87,0,*60
1513904576.51,63031,7.56,73514.8,-12.59,-13.93,-13.93,0,*68
1513904577.79,63032,7.56,73500.5,-12.59,-14.01,-14.01,0,*6B
1513904579.08,63033,7.56,73474.3,-12.57,-13.87,-13.83,0,*60
1513904580.36,63034,7.56,73482.3,-12.59,-14.01,-14.01,0,*6D
1513904581.66,63035,7.56,73494.8,-12.57,-13.87,-13.97,0,*63
1513904582.87,63036,7.56,73486.5,-12.59,-13.93,-13.93,0,*6F
1513904584.15,63037,7.56,73484.3,-12.63,-14.01,-14.01,0,*67
1513904585.43,63038,7.56,73502.3,-12.63,-14.01,-14.01,0,*68
1513904586.65,63039,7.56,73474.5,-12.63,-13.93,-13.93,0,*69
1513904587.89,63040,7.56,73474.0,-12.63,-14.01,-13.93,0,*6B
1513904589.11,63041,7.56,73486.0,-12.63,-13.93,-13.93,0,*66
1513904590.41,63042,7.56,73486.3,-12.65,-13.97,-13.97,0,*63
1513904591.66,63043,7.63,73490.5,-12.63,-13.93,-14.05,0,*6C
1513904592.87,63044,7.56,73486.8,-12.63,-13.93,-13.93,0,*63
1513904594.15,63045,7.56,73474.5,-12.63,-14.01,-14.01,0,*62
1513904595.4,63046,7.63,73468.3,-12.63,-13.93,-14.01,0,*6D
1513904596.7,63047,7.56,73476.3,-12.65,-14.05,-13.97,0,*6A
1513904597.95,63048,7.56,73462.3,-12.63,-13.93,-14.01,0,*63
1513904599.2,63049,7.56,73470.3,-12.63,-13.93,-14.01,0,*62
1513904600.41,63050,7.63,73478.5,-12.63,-13.93,-13.93,0,*66
1513904601.71,63051,7.56,73476.0,-12.65,-14.05,-13.97,0,*6D
1513904603.02,63052,7.56,73490.3,-12.65,-13.97,-13.97,0,*62
1513904604.23,63053,7.63,73490.3,-12.63,-13.93,-13.93,0,*65
1513904605.48,63054,7.56,73480.5,-12.63,-14.01,-13.93,0,*6E
1513904606.78,63055,7.63,73486.5,-12.65,-13.97,-14.05,0,*69
1513904608.08,63056,7.56,73488.8,-12.65,-13.97,-14.05,0,*6A
1513904609.32,63057,7.56,73468.8,-12.65,-14.11,-14.11,0,*67
1513904610.57,63058,7.56,73474.5,-12.65,-14.19,-14.19,0,*68
1513904611.81,63059,7.56,73468.0,-12.65,-14.19,-14.11,0,*61
1513904613.11,63060,7.56,73470.0,-12.65,-14.05,-14.05,0,*63
1513904614.38,63061,7.56,73462.8,-12.65,-14.05,-14.11,0,*67
1513904615.68,63062,7.56,73458.5,-12.65,-13.97,-14.05,0,*6D
1513904616.95,63063,7.56,73470.3,-12.65,-13.97,-14.11,0,*69
1513904618.19,63064,7.56,73460.5,-12.65,-14.11,-14.19,0,*6F
1513904619.44,63065,7.56,73466.0,-12.65,-14.11,-14.19,0,*6E
1513904620.69,63066,7.56,73456.0,-12.67,-14.05,-14.19,0,*6A
1513904621.96,63067,7.56,73468.3,-12.67,-14.05,-14.05,0,*66
1513904623.21,63068,7.56,73472.8,-12.67,-13.97,-14.11,0,*60
1513904624.48,63069,7.56,73464.0,-12.67,-14.05,-14.05,0,*68
1513904625.76,63070,7.56,73454.5,-12.67,-13.97,-14.05,0,*6C
1513904627.04,63071,7.56,73466.3,-12.67,-14.05,-13.97,0,*6D
1513904628.31,63072,7.56,73462.3,-12.67,-14.05,-14.05,0,*62
1513904629.59,63073,7.56,73470.3,-12.67,-14.05,-13.97,0,*6F
1513904630.87,63074,7.63,73466.0,-12.67,-13.97,-14.05,0,*68
1513904632.12,63075,7.63,73480.3,-12.67,-13.97,-14.11,0,*6C
1513904633.33,63076,7.56,73464.3,-12.67,-14.11,-14.11,0,*66
1513904634.61,63077,7.56,73468.8,-12.67,-13.97,-13.97,0,*67
1513904635.89,63078,7.56,73474.0,-12.67,-13.97,-13.97,0,*68
1513904637.17,63079,7.56,73458.0,-12.67,-14.05,-14.05,0,*69
1513904638.47,63080,7.63,73464.3,-12.65,-13.97,-13.97,0,*6D
1513904639.72,63081,7.56,73464.0,-12.67,-13.93,-13.97,0,*6A
1513904640.96,63082,7.56,73476.0,-12.67,-13.83,-13.93,0,*6C
1513904642.2,63083,7.56,73468.5,-12.67,-13.93,-13.97,0,*68
1513904643.48,63084,7.56,73466.0,-12.67,-13.97,-13.97,0,*6B
1513904644.76,63085,7.56,73474.3,-12.67,-13.97,-14.01,0,*62
1513904646.04,63086,7.56,73460.5,-12.67,-14.01,-13.97,0,*61
1513904647.26,63087,7.56,73460.3,-12.67,-14.11,-14.11,0,*68
1513904648.5,63088,7.56,73470.5,-12.67,-13.93,-14.05,0,*6F
1513904649.78,63089,7.56,73462.5,-12.67,-13.97,-13.97,0,*66
1513904651.06,63090,7.56,73460.0,-12.67,-13.97,-14.01,0,*66
1513904652.31,63091,7.56,73454.8,-12.67,-14.01,-14.11,0,*6E
1513904653.59,63092,7.56,73458.5,-12.67,-13.97,-13.97,0,*6C
1513904654.83,63093,7.56,73462.5,-12.67,-14.05,-13.93,0,*65
1513904656.11,63094,7.63,73452.8,-12.67,-14.01,-14.01,0,*6A
1513904657.36,63095,7.63,73450.5,-12.67,-14.01,-14.11,0,*6A
1513904658.57,63096,7.56,73458.5,-12.67,-14.11,-14.11,0,*68
1513904659.85,63097,7.56,73468.8,-12.67,-14.01,-14.01,0,*69
1513904661.13,63098,7.56,73454.0,-12.67,-14.01,-13.97,0,*6E
1513904662.4,63099,7.56,73456.8,-12.67,-13.97,-13.83,0,*62
1513904663.61,63100,7.56,73462.5,-12.67,-13.93,-13.93,0,*66
1513904664.89,63101,7.56,73456.5,-12.67,-13.87,-13.97,0,*66
1513904666.12,63102,7.56,73460.5,-12.67,-13.93,-13.83,0,*65
1513904667.4,63103,7.56,73472.0,-12.67,-13.83,-13.87,0,*61
1513904668.66,63104,7.56,73460.5,-12.67,-13.87,-13.87,0,*62
1513904669.9,63105,7.56,73454.0,-12.67,-13.73,-13.87,0,*68
1513904671.17,63106,7.63,73472.3,-12.67,-13.83,-13.87,0,*64
1513904672.44,63107,7.63,73464.3,-12.67,-13.83,-13.87,0,*65
1513904673.71,63108,7.56,73466.0,-12.67,-13.83,-13.83,0,*6E
1513904674.96,63109,7.56,73472.0,-12.67,-13.83,-13.93,0,*6E
1513904676.24,63110,7.63,73462.8,-12.67,-13.97,-13.97,0,*67
1513904677.48,63111,7.56,73446.0,-12.67,-13.83,-13.93,0,*67
1513904678.72,63112,7.56,73446.8,-12.67,-13.83,-13.93,0,*64
1513904679.97,63113,7.56,73474.8,-12.67,-13.87,-13.73,0,*6F
1513904681.24,63114,7.56,73454.5,-12.67,-13.83,-13.83,0,*63
1513904682.45,63115,7.56,73444.0,-12.67,-13.69,-13.69,0,*62
1513904683.66,63116,7.56,73436.5,-12.67,-13.65,-13.69,0,*6D
1513904684.88,63117,7.56,73442.5,-12.67,-13.69,-13.69,0,*60
1513904686.15,63118,7.56,73418.5,-12.67,-13.61,-13.61,0,*6F
1513904687.37,63119,7.56,73418.8,-12.67,-13.55,-13.55,0,*6E
1513904688.59,63120,7.56,73442.3,-12.67,-13.51,-13.55,0,*60
1513904689.82,63121,7.56,73434.0,-12.67,-13.51,-13.55,0,*61
1513904691.04,63122,7.56,73422.3,-12.67,-13.51,-13.55,0,*62
1513904692.26,63123,7.56,73424.5,-12.67,-13.55,-13.55,0,*67
1513904693.48,63124,7.56,73432.5,-12.67,-13.55,-13.55,0,*60
1513904694.69,63125,7.56,73428.3,-12.67,-13.65,-13.55,0,*62
1513904695.91,63126,7.56,73426.8,-12.67,-13.65,-13.55,0,*61
1513904697.14,63127,7.56,73430.5,-12.67,-13.51,-13.55,0,*67
1513904698.38,63128,7.56,73438.0,-12.65,-13.51,-13.55,0,*6A
1513904699.62,63129,7.56,73438.5,-12.65,-13.51,-13.47,0,*68
1513904700.87,63130,7.56,73450.5,-12.65,-13.51,-13.47,0,*60
1513904702.11,63131,7.63,73442.3,-12.65,-13.51,-13.51,0,*66
1513904703.36,63132,7.56,73434.5,-12.65,-13.51,-13.51,0,*65
1513904704.57,63133,7.56,73434.0,-12.63,-13.47,-13.47,0,*62
1513904705.82,63134,7.56,73436.5,-12.65,-13.55,-13.55,0,*63
1513904707.05,63135,7.56,73436.3,-12.63,-13.51,-13.51,0,*64
1513904708.29,63136,7.56,73432.5,-12.65,-13.55,-13.51,0,*65
1513904709.5,63137,7.56,73424.8,-12.63,-13.47,-13.47,0,*66
1513904710.71,63138,7.56,73424.0,-12.63,-13.47,-13.47,0,*69
1513904711.96,63139,7.56,73432.3,-12.65,-13.51,-13.65,0,*69
1513904713.19,63140,7.56,73432.5,-12.63,-13.51,-13.51,0,*66
1513904714.44,63141,7.56,73436.5,-12.63,-13.51,-13.61,0,*64
1513904715.68,63142,7.56,73442.3,-12.65,-13.65,-13.55,0,*61
1513904716.92,63143,7.56,73432.3,-12.65,-13.65,-13.65,0,*63
1513904718.14,63144,7.63,73436.0,-12.63,-13.65,-13.65,0,*62
1513904719.35,63145,7.56,73432.3,-12.59,-13.65,-13.65,0,*6A
1513904720.63,63146,7.56,73438.0,-12.63,-13.61,-13.61,0,*60
1513904721.85,63147,7.56,73436.8,-12.63,-13.51,-13.65,0,*66
1513904723.11,63148,7.56,73436.3,-12.63,-13.51,-13.61,0,*6D
1513904724.34,63149,7.63,73444.0,-12.65,-13.65,-13.65,0,*69
1513904725.59,63150,7.56,73446.0,-12.65,-13.55,-13.65,0,*62
1513904726.83,63151,7.56,73440.5,-12.63,-13.61,-13.51,0,*65
1513904728.09,63152,7.56,73446.5,-12.63,-13.51,-13.61,0,*66
1513904729.33,63153,7.56,73448.3,-12.63,-13.61,-13.65,0,*60
1513904730.55,63154,7.56,73446.3,-12.59,-13.73,-13.73,0,*6A
1513904731.82,63155,7.56,73438.8,-12.59,-13.79,-13.79,0,*6B
1513904733.08,63156,7.56,73448.8,-12.59,-13.79,-13.79,0,*68
1513904734.36,63157,7.56,73442.0,-12.65,-13.79,-13.79,0,*66
1513904735.6,63158,7.56,73450.5,-12.63,-13.73,-13.79,0,*65
1513904736.87,63159,7.56,73448.8,-12.63,-13.79,-13.87,0,*6F
1513904738.13,63160,7.56,73444.0,-12.59,-13.87,-13.79,0,*6C
1513904739.4,63161,7.56,73448.3,-12.59,-13.79,-13.87,0,*6D
1513904740.66,63162,7.56,73454.0,-12.63,-13.79,-13.79,0,*66
1513904741.9,63163,7.56,73440.8,-12.63,-13.65,-13.79,0,*6A
1513904743.12,63164,7.56,73446.8,-12.63,-13.73,-13.65,0,*67
1513904744.34,63165,7.56,73464.3,-12.63,-13.65,-13.65,0,*61
1513904745.56,63166,7.56,73464.5,-12.63,-13.51,-13.51,0,*62
1513904746.79,63167,7.56,73456.5,-12.63,-13.51,-13.51,0,*63
1513904748.02,63168,7.56,73464.0,-12.63,-13.55,-13.55,0,*6C
1513904749.27,63169,7.56,73472.5,-12.59,-13.51,-13.61,0,*67
1513904750.5,63170,7.56,73460.0,-12.59,-13.51,-13.51,0,*6C
1513904751.77,63171,7.56,73458.0,-12.59,-13.61,-13.61,0,*6D
1513904753.04,63172,7.56,73448.3,-12.63,-13.61,-13.61,0,*67
1513904754.3,63173,7.56,73456.3,-12.59,-13.51,-13.61,0,*6C
1513904755.52,63174,7.56,73448.5,-12.63,-13.73,-13.73,0,*61
1513904756.74,63175,7.56,73448.5,-12.59,-13.73,-13.73,0,*69
1513904758.0,63176,7.56,73462.0,-12.59,-13.79,-13.87,0,*6B
1513904759.24,63177,7.56,73454.3,-12.59,-13.73,-13.79,0,*61
1513904760.51,63178,7.56,73474.3,-12.57,-13.55,-13.61,0,*6D
1513904761.78,63179,7.56,73450.8,-12.57,-13.61,-13.55,0,*6C
1513904763.03,63180,7.56,73462.0,-12.59,-13.51,-13.61,0,*60
1513904764.28,63181,7.56,73446.3,-12.59,-13.51,-13.61,0,*61
1513904765.51,63182,7.56,73454.8,-12.59,-13.51,-13.51,0,*61
1513904766.74,63183,7.56,73456.8,-12.59,-13.51,-13.51,0,*60
1513904767.98,63184,7.56,73456.3,-12.59,-13.61,-13.73,0,*64
1513904769.2,63185,7.56,73446.5,-12.59,-13.73,-13.73,0,*66
1513904770.42,63186,7.56,73446.5,-12.59,-13.73,-13.73,0,*65
1513904771.64,63187,7.56,73470.0,-12.59,-13.65,-13.73,0,*63
1513904772.93,63188,7.56,73450.3,-12.57,-13.83,-13.83,0,*65
1513904774.2,63189,7.56,73444.0,-12.59,-13.87,-13.87,0,*6A
1513904775.46,63190,7.56,73446.5,-12.59,-13.87,-13.79,0,*63
1513904776.7,63191,7.56,73440.8,-12.59,-13.93,-13.87,0,*66
1513904777.97,63192,7.56,73460.8,-12.59,-13.87,-13.87,0,*60
1513904779.21,63193,7.56,73464.0,-12.63,-13.93,-13.87,0,*6D
1513904780.45,63194,7.56,73458.8,-12.63,-13.87,-13.93,0,*6A
1513904781.69,63195,7.56,73440.0,-12.63,-13.87,-13.93,0,*6B
1513904782.96,63196,7.56,73452.3,-12.63,-13.87,-13.87,0,*6D
1513904784.2,63197,7.56,73448.3,-12.63,-13.73,-13.79,0,*66
1513904785.47,63198,7.56,73472.5,-12.63,-13.87,-13.87,0,*63
1513904786.74,63199,7.56,73470.0,-12.63,-13.79,-13.87,0,*63
1513904788.0,63200,7.56,73460.3,-12.63,-13.79,-13.87,0,*60
1513904789.27,63201,7.56,73456.3,-12.63,-13.87,-13.87,0,*60
1513904790.54,63202,7.56,73462.0,-12.65,-13.83,-13.93,0,*64
1513904791.81,63203,7.56,73464.3,-12.63,-13.79,-13.87,0,*63
1513904793.07,63204,7.56,73480.3,-12.63,-13.87,-13.79,0,*64
1513904794.34,63205,7.56,73466.0,-12.63,-13.79,-13.87,0,*65
1513904795.6,63206,7.56,73448.5,-12.63,-13.79,-13.87,0,*66
1513904796.84,63207,7.56,73454.8,-12.63,-13.79,-13.93,0,*62
1513904798.09,63208,7.56,73470.3,-12.63,-13.87,-13.93,0,*6C
1513904799.35,63209,7.56,73460.0,-12.65,-13.97,-13.93,0,*6A
1513904800.66,63210,7.56,73462.0,-12.65,-14.05,-13.97,0,*6A
1513904801.96,63211,7.56,73472.3,-12.65,-13.97,-14.05,0,*6B
1513904803.26,63212,7.56,73464.8,-12.65,-13.97,-13.97,0,*64
1513904804.53,63213,7.56,73466.0,-12.65,-14.05,-13.93,0,*6D
1513904805.79,63214,7.63,73462.8,-12.65,-13.93,-13.97,0,*66
1513904807.06,63215,7.56,73466.3,-12.65,-13.93,-13.97,0,*67
1513904808.36,63216,7.56,73472.8,-12.65,-14.05,-14.05,0,*60
1513904809.67,63217,7.56,73462.3,-12.65,-13.97,-13.97,0,*61
1513904810.96,63218,7.56,73466.3,-12.65,-13.97,-14.05,0,*62
1513904812.23,63219,7.56,73462.0,-12.65,-13.97,-14.11,0,*66
1513904813.46,63220,7.56,73466.8,-12.67,-14.15,-14.15,0,*67
1513904814.68,63221,7.56,73468.3,-12.67,-14.19,-14.11,0,*6E
1513904815.93,63222,7.56,73462.5,-12.67,-14.05,-14.11,0,*60
1513904817.17,63223,7.56,73460.5,-12.67,-14.05,-14.11,0,*61
1513904818.42,63224,7.56,73466.8,-12.67,-14.11,-14.05,0,*66
1513904819.64,63225,7.56,73460.8,-12.67,-14.11,-14.11,0,*62
1513904820.89,63226,7.56,73462.0,-12.67,-14.05,-14.11,0,*64
1513904822.11,63227,7.56,73458.3,-12.67,-14.11,-14.23,0,*61
1513904823.34,63228,7.56,73454.0,-12.67,-14.11,-14.23,0,*6E
1513904824.55,63229,7.56,73452.8,-12.67,-14.11,-14.11,0,*6E
1513904825.79,63230,7.56,73446.0,-12.67,-14.15,-14.15,0,*66
1513904827.04,63231,7.56,73448.3,-12.67,-14.01,-14.15,0,*62
1513904828.28,63232,7.56,73466.3,-12.67,-13.97,-13.93,0,*60
1513904829.55,63233,7.56,73480.5,-12.67,-13.83,-13.87,0,*61
1513904830.79,63234,7.56,73460.8,-12.67,-13.79,-13.69,0,*63
1513904832.05,63235,7.56,73440.3,-12.67,-13.79,-13.79,0,*63
1513904833.29,63236,7.56,73444.3,-12.67,-13.73,-13.83,0,*6F
1513904834.56,63237,7.56,73446.0,-12.67,-13.83,-13.83,0,*61
1513904835.83,63238,7.56,73454.5,-12.67,-13.83,-13.83,0,*6E
1513904837.08,63239,7.56,73456.0,-12.67,-13.73,-13.87,0,*64
1513904838.34,63240,7.56,73450.3,-12.67,-13.83,-13.83,0,*61
1513904839.61,63241,7.63,73442.3,-12.67,-13.79,-13.83,0,*65
1513904840.87,63242,7.56,73450.3,-12.67,-13.79,-13.79,0,*63
1513904842.13,63243,7.56,73436.3,-12.67,-13.87,-13.87,0,*62
1513904843.4,63244,7.56,73442.8,-12.67,-13.83,-13.83,0,*65
1513904844.68,63245,7.56,73436.5,-12.67,-13.97,-13.83,0,*61
1513904845.95,63246,7.56,73444.0,-12.67,-13.83,-13.83,0,*67
1513904847.21,63247,7.56,73442.3,-12.67,-13.79,-13.79,0,*66
1513904848.48,63248,7.56,73440.3,-12.67,-13.83,-13.87,0,*6D
1513904849.76,63249,7.56,73448.5,-12.67,-13.83,-13.97,0,*6D
1513904851.02,63250,7.56,73454.8,-12.67,-13.87,-13.83,0,*64
1513904852.26,63251,7.56,73454.8,-12.67,-13.69,-13.79,0,*60
1513904853.5,63252,7.56,73456.3,-12.67,-13.69,-13.79,0,*63
1513904854.71,63253,7.56,73454.3,-12.67,-13.69,-13.69,0,*63
1513904855.93,63254,7.56,73468.3,-12.67,-13.55,-13.55,0,*64
1513904857.15,63255,7.56,73464.3,-12.67,-13.51,-13.55,0,*61
1513904858.37,63256,7.56,73460.3,-12.67,-13.65,-13.55,0,*65
1513904859.58,63257,7.56,73454.3,-12.67,-13.65,-13.55,0,*64
1513904860.8,63258,7.56,73454.3,-12.67,-13.55,-13.69,0,*67
1513904862.02,63259,7.56,73466.5,-12.67,-13.69,-13.65,0,*65
1513904863.25,63260,7.56,73466.5,-12.67,-13.69,-13.79,0,*62
1513904864.47,63261,7.56,73468.0,-12.67,-13.69,-13.69,0,*62
1513904865.71,63262,7.56,73462.5,-12.67,-13.83,-13.73,0,*6E
1513904866.93,63263,7.56,73460.5,-12.67,-13.69,-13.69,0,*60
1513904868.14,63264,7.56,73468.5,-12.67,-13.55,-13.55,0,*67
1513904869.36,63265,7.56,73478.3,-12.67,-13.65,-13.65,0,*66
1513904870.57,63266,7.56,73468.8,-12.67,-13.69,-13.65,0,*69
1513904871.84,63267,7.56,73468.0,-12.67,-13.83,-13.79,0,*61
1513904873.1,63268,7.56,73464.8,-12.67,-13.79,-13.79,0,*6B
1513904874.32,63269,7.56,73468.5,-12.67,-13.69,-13.69,0,*6A
1513904875.53,63270,7.56,73460.3,-12.67,-13.69,-13.69,0,*62
1513904876.74,63271,7.56,73474.3,-12.67,-13.69,-13.69,0,*63
1513904877.96,63272,7.56,73460.0,-12.67,-13.69,-13.69,0,*60
1513904879.17,63273,7.56,73468.3,-12.67,-13.65,-13.65,0,*61
1513904880.41,63274,7.56,73468.0,-12.65,-13.65,-13.65,0,*64
1513904881.65,63275,7.56,73456.3,-12.65,-13.65,-13.65,0,*65
1513904882.88,63276,7.56,73470.8,-12.65,-13.65,-13.65,0,*66
1513904884.14,63277,7.56,73476.3,-12.65,-13.69,-13.79,0,*66
1513904885.38,63278,7.56,73474.5,-12.65,-13.69,-13.69,0,*68
1513904886.64,63279,7.56,73464.5,-12.65,-13.79,-13.69,0,*68
1513904887.9,63280,7.56,73464.0,-12.67,-13.79,-13.79,0,*6D
1513904889.17,63281,7.56,73474.5,-12.67,-13.79,-13.83,0,*69
1513904890.41,63282,7.56,73466.3,-12.67,-13.83,-13.93,0,*6E
1513904891.68,63283,7.56,73472.5,-12.67,-13.83,-13.79,0,*6B
1513904892.96,63284,7.56,73478.8,-12.65,-13.79,-13.79,0,*6B
1513904894.22,63285,7.56,73480.0,-12.65,-13.93,-13.79,0,*6E
1513904895.46,63286,7.56,73484.5,-12.67,-13.83,-13.93,0,*6A
1513904896.74,63287,7.56,73468.3,-12.67,-13.97,-13.97,0,*6A
1513904898.02,63288,7.56,73476.0,-12.67,-14.01,-14.01,0,*65
1513904899.26,63289,7.56,73478.0,-12.67,-13.97,-13.93,0,*60
1513904900.47,63290,7.56,73480.5,-12.67,-13.93,-13.93,0,*6C